Location: Kumla
(59.1265°N, 15.1401°E)
Time: 04:17:05
(UTC+01:00)

Vanguard 2 Rocket - Pass Details

Date: 08 December 2023
Orbit: 554 x 3309 km, 32.9° (Epoch: 27 February)

Event Time Altitude Azimuth Distance (km) Brightness Sun altitude
Rises 15:38:42 0° 238° (WSW) 6,551 13.8 -4.2°
Reaches altitude 10° 15:43:40 10° 229° (SW) 5,835 13.0 -4.7°
Maximum altitude 15:58:05 29° 179° (S) 4,851 11.0 -6.2°
Drops below altitude 10° 16:12:51 10° 130° (SE) 5,982 10.9 -7.7°
Sets 16:18:02 0° 121° (ESE) 6,736 11.0 -8.3°
